OCN2B EDDF-LDDU

Flight info

Callsign OCN2B
Flight time N/A
Altitude 37000
Route CINDY8S/18 CINDY Z74 LAMPU DCT NOMBO Y161 MAH DCT VAVOR DCT RADIZ DCT MODRO DCT DARZA DCT DEPET DCT UNIPA DCT SIPAL
Aircraft A320/M-SDE2E3FGIJ1LORWXYZ/HB1

Departure

Time 2026-05-07 15:12
Airport Frankfurt Main Airport (EDDF)

Arrival

Time N/A
Airport Dubrovnik Ruđer Bošković Airport (LDDU)
Time Latitude Longitude Altitude Speed Heading
2026-05-07 14:38 50.04929 8.59256 365 ft 0 kts 339°
2026-05-07 14:55 50.04923 8.59259 365 ft 4 kts 339°
2026-05-07 14:55 50.04898 8.59274 369 ft 4 kts 339°
2026-05-07 14:55 50.04872 8.59288 370 ft 4 kts 339°
2026-05-07 14:56 50.04851 8.59300 368 ft 0 kts 339°
2026-05-07 14:58 50.04862 8.59299 368 ft 4 kts
2026-05-07 14:59 50.04877 8.59357 368 ft 8 kts 92°
2026-05-07 14:59 50.04857 8.59463 372 ft 9 kts 114°
2026-05-07 14:59 50.04843 8.59493 372 ft 0 kts 132°
2026-05-07 15:00 50.04831 8.59511 370 ft 5 kts 136°
2026-05-07 15:00 50.04789 8.59562 371 ft 10 kts 144°
2026-05-07 15:00 50.04720 8.59603 374 ft 13 kts 174°
2026-05-07 15:00 50.04613 8.59623 375 ft 18 kts 177°
2026-05-07 15:01 50.04484 8.59624 376 ft 19 kts 180°
2026-05-07 15:01 50.04342 8.59635 376 ft 21 kts 178°
2026-05-07 15:01 50.04190 8.59623 375 ft 23 kts 191°
2026-05-07 15:01 50.04045 8.59539 375 ft 22 kts 201°
2026-05-07 15:02 50.03915 8.59386 370 ft 25 kts 231°
2026-05-07 15:02 50.03842 8.59156 367 ft 22 kts 249°
2026-05-07 15:02 50.03786 8.58926 371 ft 24 kts 249°
2026-05-07 15:02 50.03722 8.58664 363 ft 27 kts 249°
2026-05-07 15:03 50.03660 8.58397 360 ft 25 kts 250°
2026-05-07 15:03 50.03603 8.58148 362 ft 24 kts 250°
2026-05-07 15:03 50.03540 8.57899 361 ft 25 kts 251°
2026-05-07 15:03 50.03482 8.57641 365 ft 22 kts 250°
2026-05-07 15:04 50.03425 8.57415 357 ft 23 kts 249°
2026-05-07 15:04 50.03366 8.57169 359 ft 25 kts 249°
2026-05-07 15:04 50.03305 8.56915 352 ft 25 kts 249°
2026-05-07 15:04 50.03242 8.56654 354 ft 27 kts 250°
2026-05-07 15:05 50.03190 8.56427 348 ft 21 kts 249°
2026-05-07 15:05 50.03136 8.56202 348 ft 23 kts 249°
2026-05-07 15:05 50.03076 8.55952 350 ft 26 kts 250°
2026-05-07 15:05 50.03015 8.55693 350 ft 23 kts 251°
2026-05-07 15:06 50.02964 8.55478 344 ft 22 kts 249°
2026-05-07 15:06 50.02910 8.55250 350 ft 23 kts 250°
2026-05-07 15:06 50.02849 8.55007 346 ft 25 kts 250°
2026-05-07 15:06 50.02789 8.54748 338 ft 26 kts 249°
2026-05-07 15:07 50.02723 8.54480 335 ft 27 kts 249°
2026-05-07 15:07 50.02669 8.54223 336 ft 25 kts 254°
2026-05-07 15:07 50.02610 8.53955 334 ft 26 kts 249°
2026-05-07 15:07 50.02546 8.53694 332 ft 24 kts 249°
2026-05-07 15:08 50.02488 8.53452 336 ft 24 kts 249°
2026-05-07 15:08 50.02427 8.53201 334 ft 26 kts 250°
2026-05-07 15:08 50.02367 8.52939 332 ft 22 kts 250°
2026-05-07 15:08 50.02322 8.52763 331 ft 16 kts 250°
2026-05-07 15:09 50.02306 8.52694 335 ft 0 kts 250°
2026-05-07 15:09 50.02305 8.52693 335 ft 1 kts 250°
2026-05-07 15:10 50.02289 8.52631 335 ft 12 kts 237°
2026-05-07 15:10 50.02242 8.52604 335 ft 0 kts 173°
2026-05-07 15:11 50.02191 8.52609 333 ft 32 kts 178°
2026-05-07 15:11 50.01685 8.52610 333 ft 107 kts 179°
2026-05-07 15:11 50.00741 8.52616 355 ft 160 kts 179°
2026-05-07 15:12 49.99601 8.52625 894 ft 168 kts 183°
2026-05-07 15:12 49.98414 8.52614 1696 ft 170 kts 180°
2026-05-07 15:12 49.97203 8.52892 2155 ft 191 kts 156°
2026-05-07 15:12 49.96099 8.54194 2515 ft 213 kts 125°
2026-05-07 15:13 49.95315 8.56280 2988 ft 232 kts 118°
2026-05-07 15:13 49.94530 8.58496 3887 ft 236 kts 116°
2026-05-07 15:13 49.94033 8.60977 4662 ft 247 kts 95°
2026-05-07 15:13 49.93919 8.63718 5167 ft 269 kts 92°
2026-05-07 15:14 49.93737 8.66657 6044 ft 277 kts 102°
2026-05-07 15:14 49.93027 8.69449 6934 ft 282 kts 122°
2026-05-07 15:14 49.91747 8.71761 7831 ft 285 kts 142°
2026-05-07 15:14 49.90107 8.73599 8742 ft 289 kts 145°
2026-05-07 15:15 49.88600 8.75648 9633 ft 295 kts 132°
2026-05-07 15:15 49.87413 8.78272 10414 ft 304 kts 119°
2026-05-07 15:15 49.86341 8.81231 10746 ft 327 kts 119°
2026-05-07 15:15 49.85211 8.84376 11018 ft 336 kts 119°
2026-05-07 15:16 49.84075 8.87536 11053 ft 337 kts 119°
2026-05-07 15:16 49.82922 8.90738 11510 ft 342 kts 119°
2026-05-07 15:16 49.81757 8.93956 12461 ft 343 kts 119°
2026-05-07 15:16 49.80583 8.97181 13304 ft 346 kts 119°
2026-05-07 15:17 49.79392 9.00451 14073 ft 350 kts 119°
2026-05-07 15:17 49.78189 9.03753 14762 ft 354 kts 119°
2026-05-07 15:17 49.76972 9.07094 15445 ft 359 kts 118°
2026-05-07 15:17 49.75989 9.10658 16091 ft 364 kts 107°
2026-05-07 15:18 49.75350 9.14472 16754 ft 368 kts 105°
2026-05-07 15:18 49.74786 9.17013 17192 ft 371 kts 113°
2026-05-07 15:18 49.73563 9.20529 17861 ft 375 kts 125°
2026-05-07 15:18 49.71918 9.23678 18503 ft 378 kts 133°
2026-05-07 15:19 49.69602 9.27736 19299 ft 382 kts 133°
2026-05-07 15:19 49.67850 9.30817 19904 ft 384 kts 132°
2026-05-07 15:19 49.66077 9.33942 20511 ft 387 kts 132°
2026-05-07 15:19 49.64303 9.37073 21113 ft 390 kts 132°
2026-05-07 15:20 49.62463 9.40170 21692 ft 392 kts 138°
2026-05-07 15:20 49.61058 9.42008 22073 ft 392 kts 144°
2026-05-07 15:20 49.58787 9.44252 22612 ft 394 kts 150°
2026-05-07 15:20 49.56388 9.46441 23135 ft 398 kts 151°
2026-05-07 15:21 49.54027 9.48591 23610 ft 402 kts 151°
2026-05-07 15:21 49.51613 9.50786 24044 ft 405 kts 151°
2026-05-07 15:21 49.49181 9.52995 24505 ft 408 kts 151°
2026-05-07 15:21 49.46731 9.55223 24961 ft 410 kts 151°
2026-05-07 15:22 49.44273 9.57466 25403 ft 412 kts 151°
2026-05-07 15:22 49.41807 9.59715 25832 ft 415 kts 151°
2026-05-07 15:22 49.39309 9.61990 26290 ft 417 kts 151°
2026-05-07 15:22 49.36812 9.64264 26713 ft 419 kts 151°
2026-05-07 15:23 49.34349 9.66687 27134 ft 423 kts 144°
2026-05-07 15:23 49.32127 9.69662 27521 ft 427 kts 136°
2026-05-07 15:23 49.30015 9.72904 27927 ft 430 kts 136°
2026-05-07 15:23 49.27894 9.76152 28330 ft 432 kts 136°
2026-05-07 15:24 49.25760 9.79408 28735 ft 434 kts 137°
2026-05-07 15:24 49.23611 9.82679 29097 ft 437 kts 136°
2026-05-07 15:24 49.21452 9.85960 29468 ft 440 kts 136°
2026-05-07 15:24 49.19271 9.89272 29858 ft 443 kts 136°
2026-05-07 15:25 49.17082 9.92598 30207 ft 445 kts 136°
2026-05-07 15:25 49.14881 9.95936 30522 ft 447 kts 136°
2026-05-07 15:25 49.12663 9.99291 30818 ft 449 kts 136°
2026-05-07 15:25 49.10437 10.02651 31106 ft 451 kts 136°
2026-05-07 15:26 49.08204 10.06017 31380 ft 454 kts 137°
2026-05-07 15:26 49.05957 10.09402 31674 ft 455 kts 137°
2026-05-07 15:26 49.03671 10.12759 32075 ft 455 kts 138°
2026-05-07 15:26 49.01366 10.16042 32470 ft 454 kts 139°
2026-05-07 15:27 48.99040 10.19295 32847 ft 454 kts 139°
2026-05-07 15:27 48.96701 10.22535 33230 ft 454 kts 139°
2026-05-07 15:27 48.94372 10.25760 33624 ft 453 kts 139°
2026-05-07 15:27 48.92046 10.29002 34021 ft 453 kts 139°
2026-05-07 15:28 48.89732 10.32258 34354 ft 453 kts 139°
2026-05-07 15:28 48.87428 10.35518 34654 ft 453 kts 139°
2026-05-07 15:28 48.85125 10.38777 34960 ft 453 kts 139°
2026-05-07 15:28 48.82823 10.42042 35242 ft 453 kts 139°
2026-05-07 15:29 48.80581 10.45386 35501 ft 454 kts 136°
2026-05-07 15:29 48.78388 10.48850 35750 ft 454 kts 135°
2026-05-07 15:29 48.76238 10.52361 35992 ft 455 kts 135°
2026-05-07 15:29 48.74093 10.55902 36244 ft 455 kts 135°
2026-05-07 15:30 48.71950 10.59421 36491 ft 455 kts 135°
2026-05-07 15:30 48.69799 10.62915 36735 ft 455 kts 136°
2026-05-07 15:30 48.67625 10.66398 36964 ft 455 kts 136°
2026-05-07 15:30 48.65442 10.69858 37042 ft 454 kts 136°
2026-05-07 15:31 48.61096 10.76724 37045 ft 451 kts 136°
2026-05-07 15:31 48.56762 10.83584 37029 ft 451 kts 136°
2026-05-07 15:32 48.52453 10.90473 37036 ft 451 kts 136°
2026-05-07 15:32 48.48153 10.97351 37029 ft 452 kts 136°
2026-05-07 15:33 48.43793 11.04180 37038 ft 452 kts 137°
2026-05-07 15:33 48.39416 11.10961 37036 ft 452 kts 137°
2026-05-07 15:34 48.35036 11.17738 37034 ft 451 kts 137°
2026-05-07 15:34 48.30691 11.24460 37033 ft 451 kts 137°
2026-05-07 15:35 48.26415 11.31419 37034 ft 453 kts 129°
2026-05-07 15:35 48.23143 11.39531 37025 ft 455 kts 122°
2026-05-07 15:36 48.19960 11.47761 37026 ft 455 kts 123°
2026-05-07 15:36 48.16770 11.55956 37024 ft 455 kts 123°
2026-05-07 15:37 48.13577 11.64150 37018 ft 456 kts 123°
2026-05-07 15:37 48.10404 11.72285 37024 ft 455 kts 123°
2026-05-07 15:38 48.07190 11.80518 37025 ft 455 kts 123°
2026-05-07 15:38 48.03991 11.88687 37028 ft 456 kts 123°
2026-05-07 15:39 48.00777 11.96843 37012 ft 456 kts 123°
2026-05-07 15:39 47.97554 12.04998 37014 ft 456 kts 123°
2026-05-07 15:40 47.94282 12.13091 37017 ft 454 kts 129°
2026-05-07 15:40 47.89971 12.19792 37021 ft 446 kts 144°
2026-05-07 15:41 47.85200 12.25726 37026 ft 446 kts 143°
2026-05-07 15:41 47.80448 12.31674 37022 ft 447 kts 143°
2026-05-07 15:42 47.75695 12.37634 37007 ft 446 kts 143°
2026-05-07 15:42 47.70945 12.43561 37009 ft 447 kts 143°
2026-05-07 15:43 47.66174 12.49476 37010 ft 446 kts 144°
2026-05-07 15:43 47.61401 12.55371 37009 ft 446 kts 144°
2026-05-07 15:44 47.56611 12.61200 37005 ft 446 kts 144°
2026-05-07 15:44 47.51802 12.66987 36990 ft 446 kts 145°
2026-05-07 15:45 47.46985 12.72769 37002 ft 446 kts 145°
2026-05-07 15:45 47.42170 12.78566 37008 ft 446 kts 145°
2026-05-07 15:46 47.34940 12.87244 37019 ft 447 kts 145°
2026-05-07 15:47 47.30120 12.93014 37021 ft 447 kts 145°
2026-05-07 15:47 47.25299 12.98774 37000 ft 446 kts 146°
2026-05-07 15:48 47.20491 13.04485 37002 ft 446 kts 146°
2026-05-07 15:48 47.15637 13.10234 37004 ft 446 kts 146°
2026-05-07 15:49 47.10800 13.15960 37005 ft 447 kts 146°
2026-05-07 15:49 47.05969 13.21684 37007 ft 446 kts 146°
2026-05-07 15:50 47.01131 13.27397 36975 ft 447 kts 146°
2026-05-07 15:50 46.96294 13.33084 36980 ft 446 kts 146°
2026-05-07 15:51 46.91439 13.38762 36979 ft 447 kts 146°
2026-05-07 15:51 46.86570 13.44446 36981 ft 447 kts 146°
2026-05-07 15:52 46.81712 13.50115 36960 ft 447 kts 146°
2026-05-07 15:52 46.76858 13.55766 36934 ft 447 kts 147°
2026-05-07 15:53 46.72024 13.61389 36921 ft 447 kts 147°
2026-05-07 15:53 46.67156 13.67042 36930 ft 448 kts 147°
2026-05-07 15:54 46.62277 13.72677 36940 ft 448 kts 147°
2026-05-07 15:54 46.57391 13.78310 36947 ft 448 kts 147°
2026-05-07 15:55 46.52512 13.83927 36905 ft 447 kts 147°
2026-05-07 15:55 46.47625 13.89548 36923 ft 448 kts 147°
2026-05-07 15:56 46.42739 13.95143 36940 ft 448 kts 147°
2026-05-07 15:56 46.37860 14.00719 36933 ft 447 kts 147°
2026-05-07 15:57 46.32971 14.06295 36946 ft 448 kts 148°
2026-05-07 15:57 46.28039 14.11903 36944 ft 448 kts 148°
2026-05-07 15:58 46.23179 14.17424 36949 ft 447 kts 148°
2026-05-07 15:58 46.18293 14.22958 36954 ft 446 kts 148°
2026-05-07 15:59 46.13403 14.28461 36961 ft 446 kts 148°
2026-05-07 15:59 46.08518 14.33965 36961 ft 445 kts 148°
2026-05-07 15:59 46.06079 14.36717 36443 ft 445 kts 144°
2026-05-07 16:00 46.03662 14.39454 36627 ft 440 kts 142°
2026-05-07 16:00 46.01277 14.42181 36817 ft 435 kts 142°
2026-05-07 16:00 45.98925 14.44881 36994 ft 431 kts 141°
2026-05-07 16:01 45.94243 14.50242 37009 ft 430 kts 142°
2026-05-07 16:01 45.89550 14.55586 37009 ft 430 kts 142°
2026-05-07 16:02 45.84864 14.60917 37009 ft 430 kts 142°
2026-05-07 16:02 45.80933 14.65379 37009 ft 430 kts 142°
2026-05-07 16:03 45.76276 14.70651 37009 ft 430 kts 142°
2026-05-07 16:03 45.71570 14.75961 37009 ft 430 kts 142°
2026-05-07 16:04 45.66869 14.81250 37009 ft 430 kts 142°
2026-05-07 16:04 45.62162 14.86539 37009 ft 430 kts 142°
2026-05-07 16:05 45.57461 14.91822 37009 ft 430 kts 142°
2026-05-07 16:05 45.52754 14.97092 37010 ft 430 kts 142°
2026-05-07 16:06 45.48063 15.02343 37008 ft 429 kts 141°
2026-05-07 16:06 45.43516 15.07754 37009 ft 426 kts 140°
2026-05-07 16:07 45.39017 15.13256 37009 ft 426 kts 140°
2026-05-07 16:07 45.34503 15.18709 37009 ft 427 kts 140°
2026-05-07 16:08 45.29957 15.24115 37010 ft 427 kts 140°
2026-05-07 16:08 45.25399 15.29513 37009 ft 427 kts 140°
2026-05-07 16:09 45.20837 15.34925 37009 ft 427 kts 140°
2026-05-07 16:09 45.16273 15.40327 37009 ft 427 kts 140°
2026-05-07 16:10 45.11706 15.45724 37009 ft 428 kts 140°
2026-05-07 16:10 45.07142 15.51122 37009 ft 428 kts 140°
2026-05-07 16:11 45.02570 15.56503 37009 ft 428 kts 141°
2026-05-07 16:11 44.97999 15.61869 37009 ft 428 kts 141°
2026-05-07 16:12 44.93415 15.67240 37009 ft 428 kts 141°
2026-05-07 16:12 44.88858 15.72565 37009 ft 428 kts 141°
2026-05-07 16:13 44.84269 15.77925 37009 ft 429 kts 141°
2026-05-07 16:13 44.79675 15.83272 37009 ft 429 kts 141°
2026-05-07 16:14 44.75036 15.88661 37009 ft 429 kts 141°
2026-05-07 16:14 44.70463 15.93965 37006 ft 430 kts 141°
2026-05-07 16:15 44.65607 15.98780 37011 ft 428 kts 151°
2026-05-07 16:15 44.60424 16.02898 37009 ft 428 kts 150°
2026-05-07 16:16 44.55236 16.07039 37009 ft 429 kts 150°
2026-05-07 16:16 44.50052 16.11175 37009 ft 429 kts 150°
2026-05-07 16:17 44.44863 16.15295 37009 ft 429 kts 151°
2026-05-07 16:17 44.39656 16.19411 37009 ft 429 kts 150°
2026-05-07 16:18 44.34487 16.23507 37010 ft 429 kts 150°
2026-05-07 16:18 44.29301 16.27610 37018 ft 428 kts 151°
2026-05-07 16:19 44.24996 16.31001 37006 ft 428 kts 151°